TITAN 3C TRANSTAGE DEB, 36983

Orbit data source: Space-Track

TITAN 3C TRANSTAGE DEB, 36983 is space debris originally from a launch on Tue, 21 Dec 1965 UTC launched from the Air Force Eastern Test Range (AFETR). Debris objects in space refer to the collection of defunct objects orbiting the Earth. Examples of debris include non-operational satellites, rocket bodies, and fragments generated from explosions, collisions, or faulty payload assembly.

Loading next visibility...
Identifier
36983, 1965-108DP
Orbit
Active
Country
Flag of USUS
Related business
Manufacturer
Unknown
Mission
Spacecraft
Bus & Motor
Unknown
Mass
Unknown
Launch date (UTC)
1965-12-21 (60 years ago)
Launch vehicle
Unknown
Launch site
Air Force Eastern Test Range (AFETR)
Object type
Payload
Rocket body
Debris
Shape & HBR
Unknown shape, 0.3 m
Radar Cross Section
Medium (>0.1 m² and <1 m²)

Expand to show TLE details & history
Last TLE update: 7 hours ago

TLE from 7 hours ago
0 TITAN 3C TRANSTAGE DEB
1 36983U 65108DP  26133.38609167  .00024063  00000-0  44003-3 0  9993
2 36983  27.0315 149.8519 4378741 290.9137  28.3819  6.84168802598805
Epoch: 2026-05-13T09:15Z
TLE epoch observation values (Epoch: 2026-05-13T09:15:58.320Z)
Latitude
-0.00002°
Longitude
139.71199°
Altitude
1,816.814 km
Speed
7.955 km/s
True Right ascension
09h 59m 24s
True Declination
0° 00' 00"
Sunlit
Object was in daylight at epoch
Visualization orbit readout
Latitude
Unknown
Longitude
Unknown
Altitude
Unknown
Speed
Unknown
Apparent Right ascension
Unknown
Apparent Declination
Unknown
Sunlit
N/A
Visualization observer readout
Local Sidereal Time
00:50:53
Azimuth
Unknown
Elevation
Unknown
Doppler factor
Unknown
Orbital elements
Apogee altitude
10,480.134 km
Perigee altitude
212.475 km
Semi-major axis
11,724.442 km
Eccentricity
0.43787
Inclination
27.0315°
RAAN
149.8519°
Arg. of periapsis
290.9137°
True anomaly
69.13652°
Mean anomaly
28.3819°
Eccentric anomaly
46.61495°
Mean motion
1.70964 °/min
Orbital period
210.57 mins
BSTAR
0.00044003
Loading maneuver chart data...
Computing Atmospheric mass density...

Documentation

Showing up to 5 results
|